SCP
0 0 0 0 0 0 0 0 0 0 0 0 0 0 0 0 0 0 0 0 0 0 0 0 0 0 0 0 0 0 0 0 0 0 0 0 0 0 0 0 0 0 0
0 0 0 0 0 0 0 0 0 0 0 0 0 0 0 0 0 0 0 0 0 0 0 0 0 0 0 0 0 0 0 0 0 0 0 0 0 0 0 0 0 0 0
0 0 0 0 0 0 0 0 0 0 0 0 0 0 0 0 0 0 0 0 0 0 0 0 0 0 0 0 0 0 0 0 0 0 0 0 0 0 0 0 0 0 0
0 0 0 0 0 0 0 0 0 0 0 0 0 0 0 0 0 0 0 0 0 0 0 0 0 0 0 0 0 0 0 0 0 0 0 0 0 0 0 0 0 0 0
0 0 0 0 0 0 0 0 0 0 0 0 0 0 0 0 0 0 0 0 0 0 0 0 0 0 0 0 0 0 0 0 0 0 0 -0 -0 -0 0 0 0 0 0
0 0 0 0 0 0 0 0 0 0 0 0 0 0 0 0 0 0 0 0 0 0 0 0 0 0 0 0 0 0 0 0 0 -0 -0 -0 -0 0 0 0 0 0 0
0 0 0 0 0 0 0 0 0 0 0 0 0 0 0 0 0 0 0 0 0 0 0 0 0 0 0 0 0 0 0 0 -0 -0 -0 -0 -0 0 0 0 0 0 0
0 0 0 0 0 0 0 0 0 0 0 0 0 0 0 0 0 0 0 0 0 0 0 0 0 0 0 0 0 0 -0 -0 -0 -0 -0 -0 0 0 0 0 0 0 0
0 0 0 0 0 0 0 0 0 0 0 0 0 0 0 0 0 0 0 0 0 0 0 0 0 0 0 0 0 0 -0 -0 -0 -0 0 0 0 0 0 0 0 0 0
0 0 0 0 0 0 0 0 0 0 0 0 0 0 0 0 0 0 0 0 0 0 0 0 0 0 0 0 0 0 0 0 0 0 0 0 0 0 0 0 0 0 0
0 0 0 0 0 0 0 0 0 0 0 0 0 0 0 0 0 0 0 0 0 0 0 0 0 0 0 0 0 0 0 0 0 0 0 0 0 0 0 0 0 0 0
0 0 0 0 0 0 0 0 0 0 0 0 0 0 0 0 0 0 0 0 0 0 0 0 0 0 0 0 0 0 0 0 0 0 0 0 0 0 0 0 0 0 0
0 0 0 0 0 0 0 0 0 0 0 0 0 0 0 0 0 0 0 0 0 0 0 0 0 0 0 0 0 0 0 0 0 0 0 0 0 0 0 0 0 0 0
0 0 0 0 0 0 0 0 0 0 0 0 0 0 0 0 0 0 0 0 0 0 0 0 0 0 0 0 0 0 0 0 0 0 0 0 0 0 0 0 0 0 0
0 0 0 0 0 0 0 0 0 0 0 0 0 0 0 0 0 0 0 0 0 0 0 0 0 0 0 0 0 0 0 0 0 0 0 0 0 0 0 0 0 0 0
0 0 0 0 0 0 0 0 0 0 0 0 0 0 0 0 0 0 0 0 0 0 0 0 0 0 0 0 0 0 0 0 0 0 0 0 0 0 0 0 0 0 0
0 0 0 0 0 0 0 0 0 0 0 0 0 0 0 0 0 0 0 0 0 0 0 0 0 0 0 0 0 0 0 0 0 0 0 0 0 0 0 0 0 0 0
0 0 0 0 0 0 0 0 0 0 0 0 0 0 0 0 0 0 0 0 0 0 0 0 0 0 0 0 0 0 0 0 0 0 0 0 0 0 0 0 0 0 0
0 0 0 0 0 0 0 0 0 0 0 0 0 0 0 0 0 0 0 0 0 0 0 0 0 0 0 0 0 0 0 0 0 0 0 0 0 0 0 0 0 0 0
0 0 0 0 0 0 0 0 0 0 0 0 0 0 0 0 0 0 0 0 0 0 0 0 0 0 0 0 0 0 0 0 0 0 0 0 0 0 0 0 0 0 0
0 0 0 0 0 0 0 0 0 0 0 0 0 0 0 0 0 0 0 0 0 0 0 0 0 0 0 0 0 0 0 0 0 0 0 0 0 0 0 0 0 0 0
0 0 0 0 0 0 0 0 0 0 0 0 0 0 0 0 0 0 0 0 0 0 0 0 0 0 0 0 0 0 0 0 0 0 0 0 0 0 0 0 0 0 0
0 0 0 0 0 0 0 0 0 0 0 0 0 0 0 0 0 0 0 0 0 0 0 0 0 0 0 0 0 0 0 0 0 0 0 0 0 0 0 0 0 0 0
0 0 0 0 0 0 0 0 0 0 0 0 0 0 0 0 0 0 0 0 0 0 0 0 0 0 0 0 0 0 0 0 0 0 0 0 0 0 0 0 0 0 0
0 0 0 0 0 0 0 0 0 0 0 0 0 0 0 0 0 0 0 0 0 0 0 0 0 0 0 0 0 0 0 0 0 0 0 0 0 0 0 0 0 0 0
0 0 0 0 0 0 0 0 0 0 0 0 0 0 0 0 0 0 0 0 0 0 0 0 0 0 0 0 0 0 0 0 0 0 0 0 0 0 0 0 0 0 0
Wind_Speed_500mb
33 34 39 45 50 47 41 33 26 24 20 16 12 9 9 13 13 10 11 14 11 9 7 7 7 9 9 10 11 10 12 13 17 18 19 21 20 20 21 24 27 29 28
31 35 40 44 48 46 40 31 24 18 15 14 12 11 7 9 13 12 8 8 9 7 4 2 0 2 4 6 7 8 8 10 12 14 16 17 19 19 20 21 25 27 29
32 36 38 40 41 40 38 36 30 22 19 16 13 10 8 8 9 11 12 10 10 10 7 8 7 7 7 8 9 11 12 12 13 13 15 16 17 18 20 23 24 27 29
31 31 34 33 34 33 32 33 30 26 23 18 15 13 11 9 10 12 16 17 17 17 15 15 14 15 14 15 16 16 15 16 17 17 17 18 18 21 23 24 26 29 29
33 30 29 29 30 27 26 25 25 22 22 20 18 17 17 16 16 18 19 19 20 20 21 21 21 21 22 22 23 24 23 22 22 22 24 23 22 24 25 27 28 29 30
32 33 31 29 29 28 27 26 25 23 22 21 22 23 24 23 23 24 25 27 26 26 26 26 27 27 28 28 29 30 30 30 30 29 29 29 27 28 29 30 31 31 32
33 33 32 32 32 31 28 27 28 28 29 28 25 27 27 29 30 30 31 32 31 29 30 31 32 32 33 33 35 36 35 36 36 37 37 34 34 33 32 33 34 36 37
38 37 39 38 37 37 37 37 33 33 32 31 28 24 18 26 33 35 36 35 33 34 34 33 35 35 35 36 37 38 39 39 41 43 41 41 40 39 37 36 38 39 39
40 39 37 38 39 40 40 38 36 34 32 31 30 21 10 10 15 14 22 29 30 32 31 30 29 30 33 34 36 38 39 40 42 44 45 46 45 43 42 42 42 43 43
40 37 36 35 35 38 40 38 35 35 33 34 33 34 35 33 14 15 10 13 20 23 25 31 38 38 37 36 39 40 41 42 44 46 47 47 47 48 48 48 48 47 47
42 40 38 37 36 38 37 37 37 37 36 34 35 33 34 36 41 43 48 36 29 33 38 41 41 42 42 45 41 41 42 45 47 49 48 48 50 50 51 51 51 52 51
44 44 39 39 37 37 37 37 35 35 35 33 35 34 35 37 35 35 39 42 46 42 39 40 43 44 44 45 46 46 44 46 48 48 48 49 50 51 52 51 52 54 55
51 47 43 40 42 38 34 33 34 32 31 29 27 26 24 26 28 31 37 39 45 48 48 43 39 42 43 43 41 40 42 45 48 47 46 46 48 51 52 53 54 56 58
46 44 42 42 40 36 34 33 33 30 28 26 24 22 24 27 31 35 40 42 51 55 60 57 49 43 39 35 37 39 42 43 45 49 51 52 53 56 57 56 58 60 64
44 41 42 41 39 36 33 35 35 28 28 31 32 35 39 38 42 43 45 49 57 68 73 67 65 52 42 43 43 46 46 49 50 52 54 57 58 59 61 60 62 64 68
47 44 44 43 43 45 44 44 46 46 44 38 42 44 47 50 52 49 57 60 65 71 83 82 77 73 64 60 54 56 55 58 57 58 59 61 62 64 66 67 68 70 74
53 52 51 51 52 53 54 56 57 52 58 58 59 60 57 61 66 69 70 72 75 77 88 91 90 88 89 84 76 73 69 69 68 67 70 70 70 71 73 76 79 79 82
59 57 58 60 62 63 64 65 65 63 65 65 64 69 70 70 73 75 78 81 84 84 91 99 92 92 94 84 82 81 77 72 71 72 72 80 81 81 84 87 85 87 91
69 70 71 69 69 71 71 71 69 66 70 72 73 76 77 80 83 81 81 84 82 81 77 91 86 88 84 82 85 85 84 84 84 83 82 83 82 82 83 86 81 83 89
70 70 72 71 69 74 74 71 68 67 71 76 75 76 75 78 80 73 73 76 77 80 80 84 86 88 84 87 86 86 90 87 93 85 83 82 86 82 84 84 84 86 91
72 70 76 78 75 77 76 78 83 82 82 82 76 73 65 75 71 75 75 79 77 77 79 80 86 82 83 80 87 81 86 87 90 91 88 91 81 88 83 79 80 82 84
74 72 69 76 81 70 70 73 80 81 76 74 75 70 68 65 69 73 81 73 68 76 81 82 87 76 69 47 45 48 58 68 79 82 83 87 78 85 78 82 78 70 67
61 61 63 67 62 66 71 69 69 65 59 56 57 63 63 66 70 67 67 68 69 68 67 66 66 62 65 63 61 61 62 65 70 71 73 93 90 84 81 81 77 74 67
52 50 51 50 53 55 63 61 64 55 53 53 55 54 59 56 63 69 69 66 67 64 64 66 66 68 69 71 69 71 69 74 78 81 77 85 89 94 88 86 84 82 74
43 43 42 43 43 46 51 50 46 42 41 39 40 42 43 48 51 55 56 56 55 52 55 56 60 62 64 61 58 59 60 64 75 76 71 73 85 81 77 76 71 67 67
38 38 37 38 38 39 41 44 39 36 35 35 37 37 41 42 45 47 49 51 54 50 52 52 52 53 54 52 50 47 49 53 55 67 43 44 66 66 72 77 53 39 60
Wind_Direction_500mb
161 159 161 166 170 171 172 175 169 163 165 159 150 148 136 159 177 179 167 156 154 149 123 93 80 71 61 60 55 44 37 33 34 33 29 26 22 22 18 17 12 14 12
174 165 162 166 173 176 177 185 183 192 187 178 168 164 152 167 186 189 190 182 189 185 177 159 22 34 23 19 18 4 359 3 7 11 12 9 7 5 2 357 0 360 4
177 173 171 169 175 184 189 197 203 211 206 195 202 203 200 188 189 211 210 212 218 229 233 255 274 287 305 316 320 316 323 327 326 333 342 346 345 345 347 347 347 347 354
180 180 184 182 182 186 188 194 201 203 208 217 228 223 223 228 223 225 230 237 240 246 252 261 269 276 282 286 290 291 293 297 302 311 314 316 326 331 334 337 337 338 343
187 190 184 187 190 192 190 193 198 210 212 217 230 241 245 246 248 247 248 248 248 252 253 259 267 271 274 275 279 283 286 292 296 298 296 305 309 315 320 324 325 327 328
194 196 201 204 202 202 205 205 211 216 221 229 238 251 258 257 254 251 249 250 252 252 255 261 264 268 270 275 277 281 285 288 287 290 292 292 300 301 306 310 316 317 316
204 204 213 217 218 219 221 222 224 224 225 225 229 240 252 261 262 261 257 256 255 257 258 261 266 267 270 273 275 278 281 282 286 288 287 292 289 292 295 303 306 308 309
207 208 214 219 224 225 225 229 229 229 223 226 232 244 263 265 262 262 264 267 267 265 263 265 268 269 271 272 273 276 279 281 281 282 286 286 286 288 291 294 296 298 301
209 210 211 217 223 225 228 231 231 232 238 236 237 236 261 266 306 275 265 264 266 270 275 274 276 279 276 274 276 280 279 278 278 280 282 284 286 287 289 289 289 291 295
217 216 218 219 224 225 228 231 235 237 239 241 247 245 251 264 292 299 293 287 277 278 283 280 285 283 278 277 281 279 279 280 279 278 278 280 283 285 286 286 288 290 292
222 224 224 225 227 229 230 232 234 236 240 244 252 258 261 265 267 272 286 291 286 287 288 288 286 283 280 281 281 281 283 282 283 282 280 279 280 282 283 283 285 288 291
221 225 227 229 231 232 231 233 238 240 244 250 255 257 258 263 275 279 282 294 297 299 295 293 293 291 288 286 285 286 284 282 282 284 282 278 278 279 281 282 283 284 286
222 224 228 228 230 232 234 236 239 242 245 249 253 260 263 269 276 282 286 297 299 305 305 306 314 309 300 293 292 289 285 280 281 281 283 281 281 282 283 284 283 283 283
232 230 231 234 234 233 234 235 237 243 244 245 246 256 272 280 283 285 291 294 297 297 298 307 313 316 315 316 302 294 290 289 285 283 282 282 283 284 285 286 286 285 285
235 235 234 240 232 224 227 232 236 235 242 253 264 273 274 274 274 275 279 283 279 282 290 298 302 315 313 305 308 305 301 298 293 288 286 284 284 285 286 286 285 285 285
235 234 233 234 227 222 225 230 237 243 250 257 268 270 272 268 266 272 272 275 276 276 278 289 293 297 297 298 297 295 297 298 298 294 292 289 286 285 284 283 283 283 284
237 238 239 240 239 239 240 243 248 251 254 257 263 265 270 272 274 279 281 283 282 283 283 289 290 293 293 292 292 292 291 288 286 289 292 292 288 285 283 283 283 283 284
241 240 242 243 243 246 250 253 256 259 263 266 268 270 272 273 276 278 280 282 283 285 286 288 288 289 291 292 290 289 287 286 285 285 284 282 283 285 284 282 281 282 285
244 246 248 248 249 252 255 257 258 256 259 263 263 267 270 272 273 274 276 279 284 287 291 295 294 293 291 291 291 290 289 289 289 290 290 289 286 286 285 286 285 286 285
253 258 254 255 256 255 256 256 256 259 261 265 269 269 269 274 279 279 281 281 287 287 289 289 292 294 291 296 295 294 293 296 295 294 289 289 293 290 287 286 286 287 287
253 252 256 261 261 260 258 262 264 261 264 265 269 269 268 275 272 275 275 278 279 278 281 284 287 286 287 284 291 294 293 294 292 286 287 286 290 294 293 291 291 291 291
253 248 256 252 254 253 261 269 257 252 256 256 261 261 260 259 264 261 271 270 272 277 278 276 277 278 279 285 283 290 294 292 292 292 302 297 295 294 295 295 296 291 293
245 240 241 245 246 253 262 259 256 259 259 260 262 265 269 270 273 273 272 276 278 277 278 281 283 284 287 284 284 285 281 283 285 288 292 293 295 292 297 296 292 294 295
240 243 245 246 254 250 252 255 262 268 270 271 272 276 276 277 279 281 284 285 286 286 284 283 285 288 284 286 285 284 287 284 283 287 287 285 287 286 287 288 291 291 296
242 244 248 249 249 254 259 263 268 270 272 273 274 276 277 279 279 283 284 286 287 288 287 286 286 288 288 287 288 289 287 287 290 292 289 287 289 298 298 293 295 293 293
246 250 248 249 250 254 262 266 269 271 272 275 279 282 286 288 290 294 295 297 298 297 295 294 294 294 295 293 291 290 292 293 293 300 303 293 297 300 304 298 300 293 295
Wind_Speed_850mb
33 34 39 45 50 47 41 33 26 24 20 16 12 9 9 13 13 10 11 14 11 9 7 7 7 9 9 10 11 10 12 13 17 18 19 21 20 20 21 24 27 29 28
31 35 40 44 48 46 40 31 24 18 15 14 12 11 7 9 13 12 8 8 9 7 4 2 0 2 4 6 7 8 8 10 12 14 16 17 19 19 20 21 25 27 29
32 36 38 40 41 40 38 36 30 22 19 16 13 10 8 8 9 11 12 10 10 10 7 8 7 7 7 8 9 11 12 12 13 13 15 16 17 18 20 23 24 27 29
31 31 34 33 34 33 32 33 30 26 23 18 15 13 11 9 10 12 16 17 17 17 15 15 14 15 14 15 16 16 15 16 17 17 17 18 18 21 23 24 26 29 29
33 30 29 29 30 27 26 25 25 22 22 20 18 17 17 16 16 18 19 19 20 20 21 21 21 21 22 22 23 24 23 22 22 22 24 23 22 24 25 27 28 29 30
32 33 31 29 29 28 27 26 25 23 22 21 22 23 24 23 23 24 25 27 26 26 26 26 27 27 28 28 29 30 30 30 30 29 29 29 27 28 29 30 31 31 32
33 33 32 32 32 31 28 27 28 28 29 28 25 27 27 29 30 30 31 32 31 29 30 31 32 32 33 33 35 36 35 36 36 37 37 34 34 33 32 33 34 36 37
38 37 39 38 37 37 37 37 33 33 32 31 28 24 18 26 33 35 36 35 33 34 34 33 35 35 35 36 37 38 39 39 41 43 41 41 40 39 37 36 38 39 39
40 39 37 38 39 40 40 38 36 34 32 31 30 21 10 10 15 14 22 29 30 32 31 30 29 30 33 34 36 38 39 40 42 44 45 46 45 43 42 42 42 43 43
40 37 36 35 35 38 40 38 35 35 33 34 33 34 35 33 14 15 10 13 20 23 25 31 38 38 37 36 39 40 41 42 44 46 47 47 47 48 48 48 48 47 47
42 40 38 37 36 38 37 37 37 37 36 34 35 33 34 36 41 43 48 36 29 33 38 41 41 42 42 45 41 41 42 45 47 49 48 48 50 50 51 51 51 52 51
44 44 39 39 37 37 37 37 35 35 35 33 35 34 35 37 35 35 39 42 46 42 39 40 43 44 44 45 46 46 44 46 48 48 48 49 50 51 52 51 52 54 55
51 47 43 40 42 38 34 33 34 32 31 29 27 26 24 26 28 31 37 39 45 48 48 43 39 42 43 43 41 40 42 45 48 47 46 46 48 51 52 53 54 56 58
46 44 42 42 40 36 34 33 33 30 28 26 24 22 24 27 31 35 40 42 51 55 60 57 49 43 39 35 37 39 42 43 45 49 51 52 53 56 57 56 58 60 64
44 41 42 41 39 36 33 35 35 28 28 31 32 35 39 38 42 43 45 49 57 68 73 67 65 52 42 43 43 46 46 49 50 52 54 57 58 59 61 60 62 64 68
47 44 44 43 43 45 44 44 46 46 44 38 42 44 47 50 52 49 57 60 65 71 83 82 77 73 64 60 54 56 55 58 57 58 59 61 62 64 66 67 68 70 74
53 52 51 51 52 53 54 56 57 52 58 58 59 60 57 61 66 69 70 72 75 77 88 91 90 88 89 84 76 73 69 69 68 67 70 70 70 71 73 76 79 79 82
59 57 58 60 62 63 64 65 65 63 65 65 64 69 70 70 73 75 78 81 84 84 91 99 92 92 94 84 82 81 77 72 71 72 72 80 81 81 84 87 85 87 91
69 70 71 69 69 71 71 71 69 66 70 72 73 76 77 80 83 81 81 84 82 81 77 91 86 88 84 82 85 85 84 84 84 83 82 83 82 82 83 86 81 83 89
70 70 72 71 69 74 74 71 68 67 71 76 75 76 75 78 80 73 73 76 77 80 80 84 86 88 84 87 86 86 90 87 93 85 83 82 86 82 84 84 84 86 91
72 70 76 78 75 77 76 78 83 82 82 82 76 73 65 75 71 75 75 79 77 77 79 80 86 82 83 80 87 81 86 87 90 91 88 91 81 88 83 79 80 82 84
74 72 69 76 81 70 70 73 80 81 76 74 75 70 68 65 69 73 81 73 68 76 81 82 87 76 69 47 45 48 58 68 79 82 83 87 78 85 78 82 78 70 67
61 61 63 67 62 66 71 69 69 65 59 56 57 63 63 66 70 67 67 68 69 68 67 66 66 62 65 63 61 61 62 65 70 71 73 93 90 84 81 81 77 74 67
52 50 51 50 53 55 63 61 64 55 53 53 55 54 59 56 63 69 69 66 67 64 64 66 66 68 69 71 69 71 69 74 78 81 77 85 89 94 88 86 84 82 74
43 43 42 43 43 46 51 50 46 42 41 39 40 42 43 48 51 55 56 56 55 52 55 56 60 62 64 61 58 59 60 64 75 76 71 73 85 81 77 76 71 67 67
38 38 37 38 38 39 41 44 39 36 35 35 37 37 41 42 45 47 49 51 54 50 52 52 52 53 54 52 50 47 49 53 55 67 43 44 66 66 72 77 53 39 60
Wind_Direction_850mb
161 159 161 166 170 171 172 175 169 163 165 159 150 148 136 159 177 179 167 156 154 149 123 93 80 71 61 60 55 44 37 33 34 33 29 26 22 22 18 17 12 14 12
174 165 162 166 173 176 177 185 183 192 187 178 168 164 152 167 186 189 190 182 189 185 177 159 22 34 23 19 18 4 359 3 7 11 12 9 7 5 2 357 0 360 4
177 173 171 169 175 184 189 197 203 211 206 195 202 203 200 188 189 211 210 212 218 229 233 255 274 287 305 316 320 316 323 327 326 333 342 346 345 345 347 347 347 347 354
180 180 184 182 182 186 188 194 201 203 208 217 228 223 223 228 223 225 230 237 240 246 252 261 269 276 282 286 290 291 293 297 302 311 314 316 326 331 334 337 337 338 343
187 190 184 187 190 192 190 193 198 210 212 217 230 241 245 246 248 247 248 248 248 252 253 259 267 271 274 275 279 283 286 292 296 298 296 305 309 315 320 324 325 327 328
194 196 201 204 202 202 205 205 211 216 221 229 238 251 258 257 254 251 249 250 252 252 255 261 264 268 270 275 277 281 285 288 287 290 292 292 300 301 306 310 316 317 316
204 204 213 217 218 219 221 222 224 224 225 225 229 240 252 261 262 261 257 256 255 257 258 261 266 267 270 273 275 278 281 282 286 288 287 292 289 292 295 303 306 308 309
207 208 214 219 224 225 225 229 229 229 223 226 232 244 263 265 262 262 264 267 267 265 263 265 268 269 271 272 273 276 279 281 281 282 286 286 286 288 291 294 296 298 301
209 210 211 217 223 225 228 231 231 232 238 236 237 236 261 266 306 275 265 264 266 270 275 274 276 279 276 274 276 280 279 278 278 280 282 284 286 287 289 289 289 291 295
217 216 218 219 224 225 228 231 235 237 239 241 247 245 251 264 292 299 293 287 277 278 283 280 285 283 278 277 281 279 279 280 279 278 278 280 283 285 286 286 288 290 292
222 224 224 225 227 229 230 232 234 236 240 244 252 258 261 265 267 272 286 291 286 287 288 288 286 283 280 281 281 281 283 282 283 282 280 279 280 282 283 283 285 288 291
221 225 227 229 231 232 231 233 238 240 244 250 255 257 258 263 275 279 282 294 297 299 295 293 293 291 288 286 285 286 284 282 282 284 282 278 278 279 281 282 283 284 286
222 224 228 228 230 232 234 236 239 242 245 249 253 260 263 269 276 282 286 297 299 305 305 306 314 309 300 293 292 289 285 280 281 281 283 281 281 282 283 284 283 283 283
232 230 231 234 234 233 234 235 237 243 244 245 246 256 272 280 283 285 291 294 297 297 298 307 313 316 315 316 302 294 290 289 285 283 282 282 283 284 285 286 286 285 285
235 235 234 240 232 224 227 232 236 235 242 253 264 273 274 274 274 275 279 283 279 282 290 298 302 315 313 305 308 305 301 298 293 288 286 284 284 285 286 286 285 285 285
235 234 233 234 227 222 225 230 237 243 250 257 268 270 272 268 266 272 272 275 276 276 278 289 293 297 297 298 297 295 297 298 298 294 292 289 286 285 284 283 283 283 284
237 238 239 240 239 239 240 243 248 251 254 257 263 265 270 272 274 279 281 283 282 283 283 289 290 293 293 292 292 292 291 288 286 289 292 292 288 285 283 283 283 283 284
241 240 242 243 243 246 250 253 256 259 263 266 268 270 272 273 276 278 280 282 283 285 286 288 288 289 291 292 290 289 287 286 285 285 284 282 283 285 284 282 281 282 285
244 246 248 248 249 252 255 257 258 256 259 263 263 267 270 272 273 274 276 279 284 287 291 295 294 293 291 291 291 290 289 289 289 290 290 289 286 286 285 286 285 286 285
253 258 254 255 256 255 256 256 256 259 261 265 269 269 269 274 279 279 281 281 287 287 289 289 292 294 291 296 295 294 293 296 295 294 289 289 293 290 287 286 286 287 287
253 252 256 261 261 260 258 262 264 261 264 265 269 269 268 275 272 275 275 278 279 278 281 284 287 286 287 284 291 294 293 294 292 286 287 286 290 294 293 291 291 291 291
253 248 256 252 254 253 261 269 257 252 256 256 261 261 260 259 264 261 271 270 272 277 278 276 277 278 279 285 283 290 294 292 292 292 302 297 295 294 295 295 296 291 293
245 240 241 245 246 253 262 259 256 259 259 260 262 265 269 270 273 273 272 276 278 277 278 281 283 284 287 284 284 285 281 283 285 288 292 293 295 292 297 296 292 294 295
240 243 245 246 254 250 252 255 262 268 270 271 272 276 276 277 279 281 284 285 286 286 284 283 285 288 284 286 285 284 287 284 283 287 287 285 287 286 287 288 291 291 296
242 244 248 249 249 254 259 263 268 270 272 273 274 276 277 279 279 283 284 286 287 288 287 286 286 288 288 287 288 289 287 287 290 292 289 287 289 298 298 293 295 293 293
246 250 248 249 250 254 262 266 269 271 272 275 279 282 286 288 290 294 295 297 298 297 295 294 294 294 295 293 291 290 292 293 293 300 303 293 297 300 304 298 300 293 295